Other Surface Observations
Issued by NWS

Home | Current Version | Previous Version | Text Only | Print | Product List | Glossary On
Versions: 1 2 3 4 5 6 7 8 9 10 11 12 13 14 15 16 17 18 19 20 21 22 23 24 25 26 27 28 29 30 31 32 33 34 35 36 37 38 39 40 41 42 43 44 45 46 47 48 49 50
421
SXUS52 KTAE 271306
OSOTAE
OSOTAE
North Florida/South Alabama/Southwest Georgia Weather Roundup
National Weather Service Tallahassee Florida
900 AM EDT MON MAR 27 2017

Note: "fair" indicates few or no clouds below 12,000 feet with no
significant weather and/or obstructions to visibility.

!FLZ017-115-028-034-025-271400
...North Florida...

CITY           SKY/WX    TMP DP  RH WIND       PRES   REMARKS
TALLAHASSEE    PTSUNNY   59  59 100 CALM      30.11R
APALACHICOLA   PTSUNNY   68  68 100 SE6       30.09R
PERRY          HAZE      65  60  86 SE6       30.13R VSB 1/2
CROSS CITY     SUNNY     64  59  82 S6        30.13R
JACKSONVILLE   SUNNY     64  62  93 CALM      30.14R
$$

!FLZ112-006-005-002-011-271400
...Florida Panhandle...

CITY           SKY/WX    TMP DP  RH WIND       PRES   REMARKS
MARIANNA       CLOUDY    60  60 100 CALM      30.11R FOG
BONIFAY        FOG       62  62 100 CALM      30.13R VSB 1/2
PANAMA CITY NW CLOUDY    65  65 100 CALM      30.10R FOG
TYNDALL AFB    FOG       65  65 100 E3        30.11R VSB 5/8
TYND DRONE APT FOG       64  65 100 SE3       30.11R VSB 1/8
DE FUNIAK SPR  CLOUDY    64  64  97 SE6       30.12R
EGLIN AFB      FOG       67  67 100 SE9       30.10R VSB 1/4
DESTIN         FOG       69  69 100 SE13      30.09R VSB 1/2
HURLBURT       DRZL/FOG  66  66 100 E9        30.08R VSB 1/4
CRESTVIEW      CLOUDY    68  65  90 E3        30.11R
PENSACOLA      CLOUDY    71  68  90 E3        30.07R
$$

!ALZ063-066-271400
...South Alabama...

CITY           SKY/WX    TMP DP  RH WIND       PRES   REMARKS
DOTHAN         FOG       63  63 100 CALM      30.16R VSB 1/2
OZARK CAIRNS   CLOUDY    64  62  95 E5        30.12R
FT RUCKER HELI CLOUDY    64  63  95 CALM      30.12R
RUCKER HELI 3  CLOUDY    65  63  94 CALM      30.12R
RUCKER HELI 2  CLOUDY    64  63  96 CALM      30.12R
FLORALA APT    PTSUNNY   66  63  90 CALM      30.13R
ANDALUSIA      PTSUNNY   68  64  87 MISG      30.10R
TROY           MOSUNNY   64  64 100 CALM      30.12R
EUFALA         CLOUDY    67  64  90 CALM      30.13R
MOBILE         PTSUNNY   71  67  87 SE5       30.07R FOG
$$

!GAZ120>161-271400
...Southwest and South Central Georgia...

CITY           SKY/WX    TMP DP  RH WIND       PRES   REMARKS
THOMASVILLE    FAIR      63  63 100 CALM      30.13R
BAINBRIDGE     MOSUNNY   63  61  94 CALM      30.12R
MOODY AFB      SUNNY     63  59  85 S3        30.12R
VALDOSTA       SUNNY     63  60  90 S3        30.13R
MOULTRIE       SUNNY     64  61  88 CALM      30.13R
BLAKELY        FOG       64  63  94 CALM      30.13R VSB 1/2
ALBANY         SUNNY     64  63  96 CALM      30.15R
TIFTON         FAIR      63  62  97 SE5       30.13R
FITZGERALD     FAIR      64  62  90 S3        30.15R
CORDELE        FAIR      69  63  80 SW3       30.14R
AMERICUS       CLOUDY    63  63 100 CALM      30.16R FOG
HOMERVILLE     FAIR      64  63  94 S3        30.13S
$$

!GMZ750-755-770-775-271400
...Coastal and Buoy Obs...

STATION/POSITION TIME  TEMP    WIND        PRES    VSBY  WAVE
                       AIR SEA DIR/SP/G                  HT/PER
                 (UTC) (F)     (DEG/KT/KT) (MB)    (MI)  (FT/S)
KEATON BEACH     1200   61      90/  7/  8 1019.1R
CEDAR KEY        1200   69     150/ 11/ 12 1019.8R
C TOWER          1200   68     120/  8/  9 1019.3R
APALACHICOLA BUO 1150   70 69  100/  8/ 10 1018.3          2/ 6
PANAMA CITY BUOY 1150   71 71              1018.3          2/ 7
MOBILE BUOY      1250   72 73  150/ 10/ 12 1017.5R         3/ 5
ORANGE BCH AL BU 1150   69 69  150/  6/  8 1017.2          3/ 5
$$




USA.gov is the U.S. government's official web portal to all federal, state and local government web resources and services.